This is the latest recevied weather packets stored in our database for station/object TA3HRJ-12. If no packets are shown the sender has not sent any weather packets the latest 1 day(s).
| Time | Temp. | Humidity | Pressure | Rain* | Wind** | Luminosity | Snow |
|---|---|---|---|---|---|---|---|
| 1777876808 | 12.22° C | 44% | 1018.3 hPa | - | - | - | - |
| 1777875908 | 11.67° C | 44% | 1018.2 hPa | - | - | - | - |
| 1777875008 | 11.67° C | 45% | 1018.1 hPa | - | - | - | - |
| 1777874108 | 11.67° C | 44% | 1018.1 hPa | - | - | - | - |
| 1777873208 | 11.67° C | 46% | 1018 hPa | - | - | - | - |
| 1777872308 | 12.22° C | 45% | 1017.9 hPa | - | - | - | - |
| 1777871408 | 11.11° C | 47% | 1017.7 hPa | - | - | - | - |
| 1777870508 | 12.22° C | 44% | 1017.6 hPa | - | - | - | - |
| 1777869608 | 13.33° C | 41% | 1017.6 hPa | - | - | - | - |
| 1777868708 | 13.89° C | 41% | 1017.5 hPa | - | - | - | - |
| 1777867808 | 13.33° C | 42% | 1017.4 hPa | - | - | - | - |
| 1777866907 | 13.33° C | 42% | 1017.3 hPa | - | - | - | - |
| 1777866007 | 13.33° C | 43% | 1017.1 hPa | - | - | - | - |
| 1777865107 | 12.78° C | 43% | 1017 hPa | - | - | - | - |
| 1777864207 | 12.78° C | 43% | 1016.9 hPa | - | - | - | - |
| 1777863307 | 12.78° C | 43% | 1016.9 hPa | - | - | - | - |
| 1777862407 | 12.78° C | 44% | 1016.8 hPa | - | - | - | - |
| 1777861507 | 12.78° C | 43% | 1016.7 hPa | - | - | - | - |
| 1777860607 | 12.78° C | 44% | 1016.8 hPa | - | - | - | - |
| 1777859707 | 12.22° C | 45% | 1016.7 hPa | - | - | - | - |
| 1777858807 | 12.78° C | 44% | 1016.7 hPa | - | - | - | - |
| 1777857907 | 13.33° C | 44% | 1016.5 hPa | - | - | - | - |
| 1777857006 | 12.78° C | 44% | 1016.3 hPa | - | - | - | - |
| 1777856106 | 12.78° C | 44% | 1016.4 hPa | - | - | - | - |
| 1777855206 | 13.33° C | 41% | 1016.3 hPa | - | - | - | - |
* Rain since midnight (hover to see other rain measurements)
** Current wind speed in m/s (hover to see current wind gust speed)